{"data":{"norad_id":63035,"intl_designator":"2025-034G","name":"STARLINK-32801","alt_names":[],"object_type":"PAYLOAD","status":"ACTIVE","operator":null,"country":"US","launch_date":"2025-02-18","launch_site_code":"AFETR","launch_vehicle":null,"mission":null,"orbit_class":"UNKNOWN","rcs_meters":null,"size_class":null,"mass_kg":null,"dimensions":null,"purposes":["comms"],"wikipedia_slug":null,"has_3d_model":false,"image_url":null,"decayed_at":null,"tle_current":{"epoch":"2026-09-21T17:19:55.014528Z","epoch_age_seconds":60010,"freshness":"FRESH","line1":"1 63035U 25034G   26264.72216452  .00014379  00000+0  43589-3 0  9995","line2":"2 63035  53.1600  63.7891 0001025  93.3784 266.7336 15.34399139 89142","mean_motion":15.34399139,"eccentricity":0.0001025,"inclination_deg":53.16,"raan_deg":63.7891,"arg_perigee_deg":93.3784,"mean_anomaly_deg":266.7336,"bstar":0.00043589,"rev_number":8914,"period_min":93.847810742287,"perigee_km":462.00461289482,"apogee_km":463.40698566868,"semimajor_km":6840.8427992817,"source":"CELESTRAK","updated_at":"2026-09-22T09:00:49.744391Z"}}}